User: anonymous   Login
Location: Unspecified
(0.0000°N, 0.0000°E)
Time: 04:24:32
(UTC+00:00)
Language:

Nimbus 4 - Orbit

View from above orbital plane
View from above orbital plane
View from above satellite
View from above satellite

Ground track
Ground track

The orbit data is extracted from the following two-line orbital elements,

1  4362U 70025A   20304.28765884 -.00000029 +00000-0 +26676-4 0  9999
2  4362 099.9603 214.5865 0007286 333.3826 136.1873 13.44613920480537
Epoch (UTC): 30 October 2020 06:54:13
Eccentricity: 0.0007286
inclination: 99.9603°
perigee height: 1086 km
apogee height: 1097 km
right ascension of ascending node: 214.5865°
argument of perigee: 333.3826°
revolutions per day: 13.44613920
mean anomaly at epoch: 136.1873°
orbit number at epoch: 48053

The dashed part of the orbit path shows where the satellite is in the earth's shadow,  

DLR